Regional Weather Roundup
Issued by NWS Kansas City/Pleasant Hill, MO

Home | Current Version | Previous Version | Text Only | Print | Product List | Glossary On
Versions: 1 2 3 4 5 6 7 8 9 10 11 12 13 14 15 16 17 18 19 20 21 22 23 24 25 26 27 28
000
ASUS43 KEAX 041510
RWREAX

WEATHER ROUNDUP FOR EASTERN KANSAS AND NORTHWEST MISSOURI
NATIONAL WEATHER SERVICE KANSAS CITY/PLEASANT HILL MO
900 AM CST SUN DEC 04 2016

KSZ040-057-103>105-MOZ028-029-037-043-041600-
...KANSAS CITY METROPOLITAN AREA...

CITY           SKY/WX    TMP DP  RH WIND       PRES   REMARKS
K.C. INTL      LGT RAIN  37  34  89 W7        30.01R WCI  32
K.C. DOWNTOWN  CLOUDY    39  36  89 W6        30.02R WCI  35
LEES SUMMIT    MIX PCPN  37  36  96 W6        30.02R WCI  32
OLATHE - IXD   CLOUDY    37  36  96 W6        30.02S WCI  32
OLATHE - OJC   CLOUDY    36  34  92 W8        30.02S WCI  30
LAWRENCE       CLOUDY    39  38  96 W3        30.03S

$$

MOZ001>008-011>017-020>025-030>033-038>040-044>046-053-054-041600-
...NORTHERN AND CENTRAL MISSOURI...

CITY           SKY/WX    TMP DP  RH WIND       PRES   REMARKS
ST. JOSEPH     CLOUDY    36  35  96 S6        30.01F WCI  31
MOSBY          LGT RAIN  36  36 100 CALM      30.02R
WARRENSBURG    LGT RAIN  36  36 100 S7        30.02R WCI  30
WHITEMAN AFB   LGT RAIN  35  35 100 SW3       30.00S
CLINTON        LGT RAIN  37  37 100 CALM      30.03R
SEDALIA        LGT SNOW  34  32  92 S3        30.03R FOG
WARSAW         NOT AVBL
CHILLICOTHE      N/A     33  33 100 CALM      30.02S
KIRKSVILLE     SNOW      33  33 100 SE7       30.00F VSB 1/2 WCI  27

$$

MOZ041-047>049-056>058-063>065-088>090-097-041600-
...EASTERN AND SOUTHERN MISSOURI...

CITY           SKY/WX    TMP DP  RH WIND       PRES   REMARKS
ST. LOUIS INTL LGT RAIN  38  34  85 SE3       30.03R FOG
SPIRIT OF STL  LGT RAIN  38  37  97 CALM      30.03R FOG
COLUMBIA       LGT RAIN  36  35  96 S5        30.02R FOG     WCI  32
JEFFERSON CITY LGT RAIN  38  36  92 S6        30.03R FOG     WCI  33
ROLLA          LGT RAIN  36  36 100 S6        29.99R FOG     WCI  31
OSAGE BEACH    LGT RAIN  37  36  96 SW3       30.03R FOG
SPRINGFIELD    LGT RAIN  39  37  92 VRB6      30.01R WCI  35
BRANSON        LGT RAIN  37  37 100 CALM      30.02S FOG
JOPLIN         CLOUDY    41  41 100 S5        30.02F
WEST PLAINS    CLOUDY    38  37  97 S3        30.02R FOG

$$

IAZ060-094-KSZ022-034>040-054-083-096-NEZ052-066-093-041600-
...KANSAS...SOUTHEAST NEBRASKA AND IOWA...

CITY           SKY/WX    TMP DP  RH WIND       PRES   REMARKS
TOPEKA         PTSUNNY   39  37  92 SW3       30.02F
MANHATTAN      CLOUDY    36  34  92 W8        30.04R FOG     WCI  30
EMPORIA        PTSUNNY   39  37  92 W5        30.03R
CHANUTE        CLOUDY    42  39  89 NW8       30.04R
WICHITA        CLOUDY    40  37  89 NW12      30.06R WCI  33
OMAHA          CLOUDY    35  30  82 SW5       29.99R WCI  31
LINCOLN        CLOUDY    33  31  92 W8        30.01S WCI  26
FALLS CITY     CLOUDY    36  35  96 W9        30.00R WCI  29
LAMONI         LGT SNOW  33  32  96 S6        29.98S VSB 1   WCI  28
DES MOINES     LGT SNOW  34  33  96 S7        29.98S FOG     WCI  28

$$





USA.gov is the U.S. government's official web portal to all federal, state and local government web resources and services.